Whiteman AFB, MO

7:53 PM CDT on July 25, 2017 (GMT -0500)
Whiteman Air Force Base

Weather History for KSZL - September, 2012

Change the Weather History Date:

Wednesday, September 12, 2012

  Actual Average Record
Temperature  
Mean Temperature 75 °F -  
Max Temperature 88 °F 79 °F 89 °F (1998)
Min Temperature 63 °F 59 °F 48 °F (2007)
Cooling Degree Days 10    
Growing Degree Days 25 (Base 50)    
Moisture  
Dew Point 58 °F    
Average Humidity 58    
Maximum Humidity 87    
Minimum Humidity 31    
Precipitation  
Precipitation 0.00 in - - ()
Sea Level Pressure  
Sea Level Pressure 30.05 in    
Wind  
Wind Speed 9 mph (SSE)    
Max Wind Speed 16 mph    
Max Gust Speed 22 mph    
Visibility 10 miles    
Events      
Averages and records for this station are not official NWS values.
T = Trace of Precipitation, MM = Missing Value Source: NWS Daily Summary

Daily Weather History Graph

Daily Weather History Graph

Search for Another Location

Airport or City:

Trip Planner

Search our weather history database for the weather conditions in past years. The results will help you decide how hot, cold, wet, or windy it might be!

Date:

Astronomy

Sep. 12, 2012 Rise Set
Actual Time 6:53 AM CDT 7:26 PM CDT
Civil Twilight 6:26 AM CDT 7:53 PM CDT
Nautical Twilight 5:55 AM CDT 8:24 PM CDT
Astronomical Twilight 5:22 AM CDT 8:56 PM CDT
Moon 3:12 AM CDT (9/12) 5:12 PM CDT (9/12)
Length of Visible Light 13h 26m
Length of Day
12h 32m
Waning Crescent, 13% of the Moon is Illuminated
Sep 12
Waning Crescent
Sep 15
New
Sep 22
First Quarter
Sep 29
Full
Oct 8
Last Quarter

Hourly Weather History & Observations

Time (CDT) Temp. Heat Index Dew Point Humidity Pressure Visibility Wind Dir Wind Speed Gust Speed Precip Events Conditions
12:55 AM 69.3 °F - 58.8 °F 69% 30.03 in 10.0 mi SSE 8.1 mph - N/A   Clear
1:55 AM 68.5 °F - 58.8 °F 71% 30.02 in 10.0 mi SSE 9.2 mph - N/A   Clear
2:55 AM 66.9 °F - 59.2 °F 76% 30.03 in 10.0 mi SSE 8.1 mph - N/A   Clear
3:55 AM 65.8 °F - 59.4 °F 80% 30.03 in 10.0 mi SSE 8.1 mph - N/A   Clear
4:55 AM 64.9 °F - 59.5 °F 83% 30.03 in 10.0 mi SSE 6.9 mph - N/A   Clear
5:55 AM 63.9 °F - 59.7 °F 86% 30.04 in 10.0 mi SSE 5.8 mph - N/A   Clear
6:55 AM 63.9 °F - 59.9 °F 87% 30.06 in 10.0 mi South 6.9 mph - N/A   Clear
7:55 AM 65.8 °F - 60.6 °F 83% 30.08 in 10.0 mi South 9.2 mph - N/A   Clear
8:55 AM 70.5 °F - 61.5 °F 73% 30.09 in 10.0 mi South 10.4 mph - N/A   Clear
9:55 AM 77.4 °F - 60.8 °F 57% 30.09 in 10.0 mi SSW 12.7 mph - N/A   Clear
10:55 AM 80.6 °F 81.2 °F 60.1 °F 49% 30.10 in 10.0 mi SSW 16.1 mph - N/A   Clear
11:55 AM 83.3 °F 83.4 °F 59.9 °F 45% 30.09 in 10.0 mi South 12.7 mph - N/A   Clear
12:55 PM 86.0 °F 85.4 °F 59.2 °F 40% 30.08 in 10.0 mi SSW 13.8 mph 21.9 mph N/A   Clear
1:55 PM 87.3 °F 85.9 °F 56.8 °F 35% 30.05 in 10.0 mi South 9.2 mph - N/A   Clear
2:55 PM 87.8 °F 86.1 °F 55.0 °F 33% 30.02 in 10.0 mi South 13.8 mph - N/A   Clear
3:55 PM 87.8 °F 85.7 °F 54.0 °F 31% 30.02 in 10.0 mi SSE 11.5 mph - N/A   Clear
4:55 PM 87.4 °F 85.5 °F 54.5 °F 32% 30.01 in 10.0 mi South 13.8 mph - N/A   Clear
5:55 PM 85.6 °F 84.3 °F 55.8 °F 36% 30.01 in 10.0 mi South 9.2 mph - N/A   Clear
6:55 PM 81.7 °F 81.6 °F 57.7 °F 44% 30.01 in 10.0 mi South 6.9 mph - N/A   Clear
7:55 PM 77.2 °F - 58.6 °F 53% 30.03 in 10.0 mi SSE 8.1 mph - N/A   Clear
8:55 PM 74.8 °F - 58.5 °F 57% 30.04 in 10.0 mi SSE 6.9 mph - N/A   Clear
9:55 PM 73.2 °F - 57.6 °F 58% 30.05 in 10.0 mi SSE 6.9 mph - N/A   Clear
10:55 PM 72.3 °F - 57.9 °F 60% 30.06 in 10.0 mi SSE 8.1 mph - N/A   Clear
11:55 PM 70.7 °F - 58.5 °F 65% 30.08 in 10.0 mi SSE 9.2 mph - N/A   Scattered Clouds